Other Public Products
Issued by NWS Grand Forks, ND

Home | Current Version | Previous Version | Graphics & Text | Print | Product List | Glossary On
Versions: 1 2 3 4 5 6 7 8 9 10 11 12 13 14 15 16 17 18 19 20 21 22 23 24 25 26 27 28 29 30 31 32 33 34 35 36 37 38 39 40 41 42 43 44 45 46 47 48 49 50
000
FPUS83 KFGF 070431
OPUFGF
PRAIRIE TO PINES WEATHER ROUNDUP
NATIONAL WEATHER SERVICE EASTERN NORTH DAKOTA/GRAND FORKS ND
1000 PM CST TUE DEC 06 2016

 **SATELLITE DATA USED TO AUGMENT SKY COVER AT AUTOMATED STATIONS**
 *****  WEATHER ACROSS EASTERN NORTH DAKOTA  *****

CITY           SKY/WX    TMP DP  RH WIND       PRES   REMARKS
GRAND FORKS    LGT SNOW  18  13  80 NW26G38   29.68R VSB 1   WCI  -1
GRAND FORKS AF LGT SNOW  18  12  79 NW26G37   29.71R WCI  -1
GRAND CITY NWS   N/A     18 N/A N/A NW10        N/A  WCI   6
BUXTON           N/A     36  36  99 W28         N/A
DEVILS LAKE    SNOW       9   7  92 W37G44    29.78R VSB 1/2 WCI -16
FARGO          CLOUDY    16   9  74 W31G39    29.77R WCI  -4
WAHPETON ARPT  CLOUDY    16  10  79 W31G38    29.83R WCI  -5
$$

 *****  WEATHER ACROSS CENTRAL AND WESTERN NORTH DAKOTA  *****

CITY           SKY/WX    TMP DP  RH WIND       PRES   REMARKS
JAMESTOWN      LGT SNOW   9   5  84 NW30G41   29.86R VSB 3/4 WCI -14
BISMARCK       CLOUDY     6   2  83 NW22G39   30.05R WCI -15
MINOT          LGT SNOW   7   3  84 W31G43    29.99R VSB 3/4 WCI -17
MINOT AFB      SNOW       5   1  85 NW33G39   29.97S VSB 1/2 WCI -20
GARRISON         N/A      5   0  79 NW30G38   30.01R WCI -19
WILLISTON      CLOUDY     3  -4  72 NW16G26   30.15R WCI -16
DICKINSON      CLOUDY     1  -5  75 NW26G32   30.05R HAZE    WCI -23
HETTINGER      CLOUDY     3  -3  76 NW26      30.08R WCI -21
$$

 *****  OTHER OBSERVATIONS NORTHEAST NORTH DAKOTA  *****

CITY           SKY/WX    TMP DP  RH WIND       PRES   REMARKS
WALHALLA       SNOW      16  16 100 NW20G37   29.69R VSB 1/2 WCI  -1
LANGDON        SNOW      14  10  85 NW35G47   29.68R VSB 1/4 WCI  -8
CAVALIER       FOG       19  16  86 NW29G40   29.66R VSB 3/4 WCI   1
GRAFTON        MOCLDY    18  16  93 NW30G38   29.69R FOG     WCI  -2
CANDO          CLOUDY    10   7  85 NW28G38   29.82R FOG     WCI -11
FORT TOTTEN      N/A     11  10  95 NW15      29.95S WCI  -5
ROLLA          SNOW      10  10 100 NW33G44   29.79R VSB 1/2 WCI -13
RUGBY            N/A      7   5  92 NW33G40   29.89R FOG     WCI -18
 ***** THE ABOVE OBSERVATIONS ARE NON NWS ARE NOT QUALITY
        CONTROLLED AND MAY MIS-REPORT RAIN FOR SNOW...
$$

 *****  OTHER OBSERVATIONS SOUTHEAST NORTH DAKOTA *****

CITY           SKY/WX    TMP DP  RH WIND       PRES   REMARKS
COOPERSTOWN    LGT SNOW  10   7  85 NW33G48   29.78R VSB 3/4 WCI -13
VALLEY CITY    SNOW       9   9 100 NW28G45   29.84R VSB 1/2 WCI -13
OAKES          NOT AVBL
GWINNER          N/A     14  10  85 W31G39    29.85S WCI  -7
SHEYENNE NWR     N/A     13   6  73 NW25      29.95S WCI  -7
BUFFALO          N/A     11   7  84 N33G45      N/A  WCI -12
WYNDMERE         N/A     14   9  79 W26         N/A  WCI  -6
 ***** THE ABOVE OBSERVATIONS ARE NON NWS ARE NOT QUALITY
       CONTROLLED AND MAY MIS-REPORT RAIN FOR SNOW...
$$

  *****  WEATHER ACROSS NORTHERN MINNESOTA  *****

CITY           SKY/WX    TMP DP  RH WIND       PRES   REMARKS
FLAG ISLAND    FLURRIES  23  21  93 SW8       29.44R WCI  14
WARROAD        LGT SNOW  21  18  86 W8        29.47R WCI  12
ROSEAU         CLOUDY    25  21  86 NW14      29.49R WCI  13
HALLOCK        LGT SNOW  21  19  93 NW35G43   29.59R VSB 3/4 WCI   2
THF RVR FALLS  LGT SNOW  18  16  93 W26       29.59R FOG     WCI  -1
HALSTAD          N/A     14  10  85 NW28        N/A  WCI  -6
FOSSTON        LGT SNOW  16  14  93 W26G33    29.60R WCI  -3
BAUDETTE       CLOUDY    21  18  88 W6        29.44S WCI  13
WASKISH        CLOUDY    25  21  86 W10       29.47R WCI  15
CROOKSTON      LGT SNOW  18  16  93 NW30      29.66R WCI  -2
$$
  *****  WEATHER ACROSS CENTRAL AND WEST MINNESOTA  *****

CITY           SKY/WX    TMP DP  RH WIND       PRES   REMARKS
BEMIDJI        LGT SNOW  19  15  88 W23G31    29.53R WCI   1
PARK RAPIDS    LGT SNOW  16  10  77 W24       29.60R VSB 1   WCI  -2
WADENA         LGT SNOW  14  10  85 W17G29    29.68R WCI  -3
DETROIT LAKES  LGT SNOW  14  12  92 W23G33    29.69R VSB 1   WCI  -5
MOORHEAD       CLOUDY    16   9  73 W31       29.77R WCI  -5
FERGUS FALLS   LGT SNOW  14  10  85 W22G28    29.84R WCI  -4
ELBOW LAKE     LGT SNOW  13  10  90 NW28G36   29.82R VSB 1   WCI  -8
MORRIS MN      FLURRIES  16  10  79 W31G40    29.83R WCI  -5
STAPLES        LGT SNOW  16  10  79 W23G29    29.68R WCI  -2
WHEATON        CLOUDY    16  10  79 W25G33    29.88R WCI  -3
$$
  *****  WEATHER ELSEWHERE ACROSS MINNESOTA  *****

CITY           SKY/WX    TMP DP  RH WIND       PRES   REMARKS
DULUTH         LGT SNOW  20  16  84 SW21G29   29.51R FOG     WCI   4
INTRNTL FALLS  LGT SNOW  20  17  88 W5        29.44R FOG     WCI  13
ELY            LGT SNOW  19  18  93 SW6       29.43R WCI  11
CLOQUET        FLURRIES  19  14  79 SW15G22   29.54R WCI   5
BRAINERD       LGT SNOW  17  12  80 W17G29    29.65R WCI   1
HIBBING        LGT SNOW  22  18  85 W6G18     29.47R FOG     WCI  14
ALEXANDRIA     LGT SNOW  14  11  87 W26G35    29.76R FOG     WCI  -6
SAINT CLOUD    FLURRIES  17  12  80 W20G30    29.76R WCI   1
MINNEAPOLIS    FLURRIES  19  10  68 W18G26    29.83R WCI   4
$$

  *****  WEATHER ACROSS SOUTH DAKOTA  *****

CITY           SKY/WX    TMP DP  RH WIND       PRES   REMARKS
SIOUX FALLS    CLEAR     12   5  73 W20G32    30.02R WCI  -6
BROOKINGS      CLEAR      9   4  80 W26G33    29.94R WCI -13
WATERTOWN      CLOUDY     9   4  80 W25G33    29.92R WCI -12
HURON          CLEAR     10   4  76 NW21      30.07R WCI  -9
SISSETON         N/A     14   6  70 NW31G40   29.86R WCI  -7
ABERDEEN       CLOUDY    11   1  64 W28G40    29.98R WCI -10
MITCHELL       CLEAR     13   5  70 W17       30.10R WCI  -4
PIERRE         MOCLDY    11   3  70 NW23G32   30.10R WCI  -9
MOBRIDGE       PTCLDY     8  -2  63 NW30G37   30.04S WCI -15
RAPID CITY     CLOUDY     5  -2  72 N16       30.08R WCI -14
$$

  *****  SOME WEATHER IN NEARBY STATES *****

CITY           SKY/WX    TMP DP  RH WIND       PRES   REMARKS
GLASGOW MT     CLOUDY     2  -7  66 W22       30.24R WCI -20
GREAT FALLS MT CLOUDY    -1  -8  72 NW8       30.26R WCI -15
CHEYENNE WY    LGT SNOW  13   8  81 E9        29.84F WCI   1
SCOTTSBLUFF NE CLOUDY    17   2  51 N5        30.02R WCI  10
OMAHA NE       PTCLDY    24  10  55 NW10      30.12R WCI  14
DES MOINES IA  CLEAR     26  13  57 W13       30.06R WCI  15
DAVENPORT IA   CLEAR     27  19  72 W13       30.00R WCI  16
CHICAGO IL     CLOUDY    27  19  72 W16G25    29.95R WCI  15
EAU CLAIRE WI  FLURRIES  20  13  74 SW18G26   29.78R WCI   5
LA CROSSE WI   CLOUDY    25  15  66 W13       29.89R WCI  14
$$

  *****  SOME NATIONAL WEATHER *****

CITY           SKY/WX    TMP DP  RH WIND       PRES   REMARKS
LA GUARDIA NY  LGT RAIN  43  38  82 E14       29.88F
RALEIGH NC     CLOUDY    43  41  93 VRB3      29.86R
ATLANTA GA     DRIZZLE   54  51  90 NW14      29.95R
NEW ORLEANS LA CLOUDY    56  54  93 NE3       30.03S
OKLAHOMA CITY  CLOUDY    37  20  50 NE10      30.08F
ALBUQUERQUE NM MOCLDY    37  15  40 CALM      29.85S
SALT LAKE CITY PTCLDY    24  18  77 CALM      29.91R
LOS ANGELES CA MOCLDY    57  52  83 W7        29.99S
BOISE ID       CLEAR     18  15  88 W3        30.08R
SEATTLE WA     MOCLDY    35  26  69 NE6       30.29R
$$

*** WEATHER ACROSS MANITOBA...SASKATCHEWAN AND ONTARIO ***
                ***ONTARIO***

CITY           SKY/WX    TMP DP  RH WIND       PRES   REMARKS
GERALDTON      LGT SNOW  32  32 100 E8        29.43F WCI  25
THUNDER BAY    FLURRIES  27  21  80 SW7       29.51S WCI  19
SIOUX LOOKOUT  FLURRIES  23  18  80 SW3       29.42R
TORONTO        LGT RAIN  36  36 100 SE9       29.74F
BIG TROUT LK   LGT SNOW  18  16  93 NE9G17    29.74R WCI   6
PICKLE LAKE    NOT AVBL
DRYDEN         LGT SNOW  21  19  93 S6        29.41R WCI  14
KENORA         FLURRIES  21  19  93 S2        29.41S
$$
                *** MANITOBA***

CITY           SKY/WX    TMP DP  RH WIND       PRES   REMARKS
BRANDON        FLURRIES  12   7  79 NW29G36   29.82S WCI  -9
DAUPHIN        LGT SNOW  18  12  79 NW16G31   29.88R WCI   3
ISLAND LAKE    NOT AVBL
PILOT MOUND      N/A     12  10  92 NW30G40     N/A  WCI  -9
THE PAS        FLURRIES  16  12  86 NW16      30.02F WCI   0
THOMPSON       FLURRIES  14  10  85 N16G23    30.02R WCI  -2
WINNIPEG       LGT SNOW  25  23  93 NW26      29.58R VSB 1   WCI   9
LYNN LAKE      FLURRIES   9   7  92 N14G20    30.13R WCI  -8
CHURCHILL      LGT SNOW  27  25  93 NE26G33   30.05R DRFTSNOWWCI  11
GILLAM         PTCLDY    16  12  86 N16       29.98S WCI   0
$$
                ***SASKATCHEWAN***

CITY           SKY/WX    TMP DP  RH WIND       PRES   REMARKS
ESTEVAN        LGT SNOW   3   0  85 NW31G37   30.06R BLWGSNOWWCI -22
KINDERSLEY     PTCLDY    -4 -11  71 NW13G21   30.28R WCI -23
LLOYDMINSTER   MOCLDY    -6  -9  84 NW14G22   30.31R WCI -26
PRINCE ALBERT  FLURRIES   5  -2  72 NW13G20   30.19S WCI -12
REGINA         FLURRIES   3  -2  78 NW24G31   30.15R WCI -20
YORKTON        FLURRIES   9   3  78 NW23G31   30.00R WC1F1C2F2C3F3C4F4C5F5C6F6C7F7C8F8C9F9CaFaCbFbCcFcCdFdCe!



USA.gov is the U.S. government's official web portal to all federal, state and local government web resources and services.